This is the latest recevied weather packets stored in our database for station/object WX5HOT. If no packets are shown the sender has not sent any weather packets the latest 10 day(s).
| Time | Temp. | Humidity | Pressure | Rain* | Wind** | Luminosity | Snow |
|---|---|---|---|---|---|---|---|
| 1777316230 | 23.89° C | 87% | 1060.4 hPa | 0 mm | - | 295 W/m² | - |
| 1777315927 | 23.33° C | 87% | 1060.5 hPa | 0 mm | - | 191 W/m² | - |
| 1777315625 | 23.33° C | 88% | 1060.4 hPa | 0 mm | - | 220 W/m² | - |
| 1777315323 | 23.33° C | 88% | 1060.2 hPa | 0 mm | - | 231 W/m² | - |
| 1777315021 | 23.33° C | 87% | 1060.4 hPa | 0 mm | - | 186 W/m² | - |
| 1777314721 | 23.33° C | 88% | 1060.3 hPa | 0 mm | - | 362 W/m² | - |
| 1777314418 | 23.33° C | 88% | 1060.5 hPa | 0 mm | - | 207 W/m² | - |
| 1777314115 | 23.33° C | 88% | 1060.4 hPa | 0 mm | - | 437 W/m² | - |
| 1777313813 | 23.33° C | 88% | 1060.2 hPa | 0 mm | - | 160 W/m² | - |
| 1777313510 | 23.33° C | 89% | 1060.4 hPa | 0 mm | - | 142 W/m² | - |
| 1777313207 | 23.33° C | 89% | 1060.2 hPa | 0 mm | - | 168 W/m² | - |
| 1777312903 | 23.33° C | 89% | 1060.3 hPa | 0 mm | - | 136 W/m² | - |
| 1777312600 | 23.33° C | 89% | 1060.4 hPa | 0 mm | - | 431 W/m² | - |
| 1777312297 | 22.78° C | 91% | 1060.5 hPa | 0 mm | - | 466 W/m² | - |
| 1777311994 | 22.78° C | 92% | 1060.7 hPa | 0 mm | - | 420 W/m² | - |
| 1777311690 | 22.78° C | 92% | 1060.3 hPa | 0 mm | - | 132 W/m² | - |
| 1777311388 | 22.78° C | 91% | 1060.2 hPa | 0 mm | - | 155 W/m² | - |
| 1777311085 | 22.78° C | 92% | 1060.3 hPa | 0 mm | - | 262 W/m² | - |
| 1777310783 | 22.78° C | 92% | 1060.4 hPa | 0 mm | - | 187 W/m² | - |
| 1777310481 | 22.78° C | 92% | 1060.5 hPa | 0 mm | - | 317 W/m² | - |
| 1777310178 | 22.78° C | 92% | 1060.2 hPa | 0 mm | - | 384 W/m² | - |
| 1777309875 | 22.22° C | 94% | 1060.4 hPa | 0 mm | - | 309 W/m² | - |
| 1777309573 | 22.22° C | 94% | 1060.2 hPa | 0 mm | - | 172 W/m² | - |
| 1777309270 | 21.67° C | 97% | 1060.3 hPa | 0 mm | - | 183 W/m² | - |
| 1777308968 | 21.67° C | 99% | 1060.4 hPa | 0 mm | - | 105 W/m² | - |
* Rain latest hour (hover to see other rain measurements)
** Current wind speed in m/s (hover to see current wind gust speed)